{"data":{"norad_id":54182,"intl_designator":"2022-141AB","name":"STARLINK-5231","alt_names":[],"object_type":"PAYLOAD","status":"ACTIVE","operator":null,"country":"US","launch_date":"2022-10-28","launch_site_code":"AFWTR","launch_vehicle":null,"mission":null,"orbit_class":"UNKNOWN","rcs_meters":null,"size_class":null,"mass_kg":null,"dimensions":null,"purposes":["comms"],"wikipedia_slug":null,"has_3d_model":false,"image_url":null,"decayed_at":null,"tle_current":{"epoch":"2026-05-24T23:51:40.908672Z","epoch_age_seconds":75653,"freshness":"FRESH","line1":"1 54182U 22141AB  26144.99422348  .00000280  00000+0  35688-4 0  9991","line2":"2 54182  53.2136 351.2074 0001454 100.4037 259.7119 15.08838060197801","mean_motion":15.0883806,"eccentricity":0.0001454,"inclination_deg":53.2136,"raan_deg":351.2074,"arg_perigee_deg":100.4037,"mean_anomaly_deg":259.7119,"bstar":3.5688e-5,"rev_number":19780,"period_min":95.437677387327,"perigee_km":538.7434581036,"apogee_km":540.7551794451,"semimajor_km":6917.8863187743,"source":"CELESTRAK","updated_at":"2026-05-25T13:38:17.679853Z"}}}